Regional Weather Roundup
Issued by NWS Upton, NY

Current Version | Previous Version | Text Only | Print | Product List | Glossary On
Versions: 1 2 3 4 5 6 7 8 9 10 11 12 13 14 15 16 17 18 19 20 21 22 23 24 25 26 27
000 ASUS41 KOKX 310505 RWROKX REGIONAL WEATHER ROUNDUP NATIONAL WEATHER SERVICE NEW YORK NY 100 AM EDT WED AUG 31 2016 NOTE: "FAIR" INDICATES FEW OR NO CLOUDS BELOW 12,000 FEET WITH NO SIGNIFICANT WEATHER AND/OR OBSTRUCTIONS TO VISIBILITY. NYZ071-072-176-178-NJZ106-104-310600- NEW YORK CITY METRO AREA CITY SKY/WX TMP DP RH WIND PRES REMARKS Central Park PTCLDY 75 68 78 VRB5 30.07F LaGuardia APRT MOCLDY 77 70 79 S9 30.04F Kennedy INTL MOCLDY 75 72 90 SW5 30.06S Newark/Liberty MOCLDY 75 70 84 S5 30.04F Bronx Bot Gard N/A 73 68 83 CALM 30.07R Wall St Helipt MOCLDY 75 72 88 SW3 30.06S Teterboro PTCLDY 74 68 81 S5 30.04S $$ NYZ177-179-078>081-310600- LONG ISLAND NEW YORK CITY SKY/WX TMP DP RH WIND PRES REMARKS Farmingdale PTCLDY 74 70 87 S6 30.06S MacArthur/ISP PTCLDY 74 69 85 S6 30.05F Shirley PTCLDY 72 69 90 S6 30.06F Riverhead NOT AVBL Westhampton MOCLDY 64 60 87 CALM 30.08S Southampton N/A 73 68 83 SW3 30.02S Bridgehampton NOT AVBL East Hampton FAIR 66 63 91 CALM 30.05F Montauk N/A 72 67 84 VRB3 30.07S $$ NYZ052-065-067-310600- HUDSON VALLEY CITY SKY/WX TMP DP RH WIND PRES REMARKS White Plains MOCLDY 69 66 90 CALM 30.05F Newburgh PTCLDY 68 63 83 CALM 30.06F Montgomery PTCLDY 63 61 93 CALM 30.04F Poughkeepsie MOCLDY 64 61 90 CALM 30.03S Albany PTCLDY 65 58 78 CALM 30.02F $$ NJZ001-105-106-008-010-013-015-019>022-104-310600- NEW JERSEY CITY SKY/WX TMP DP RH WIND PRES REMARKS Newark/Liberty MOCLDY 75 70 84 S5 30.04F Teterboro PTCLDY 74 68 81 S5 30.04S Caldwell MOCLDY 72 67 84 CALM 30.06S Morristown PTCLDY 64 63 94 CALM 30.06S Somerville PTCLDY 67 64 90 CALM 30.04S Linden FAIR 74 69 85 CALM 30.07S Sussex PTCLDY 63 63 100 CALM 30.06S Abdover N/A 64 62 93 CALM 30.07S Trenton MOCLDY 72 69 90 S3 30.05F Millville PTCLDY 67 67 100 CALM 30.05F FOG Atlantic City PTCLDY 70 68 93 CALM 30.05F FOG Wrightstown PTCLDY 69 68 98 CALM 30.03F Toms River CLOUDY 65 64 97 CALM 30.06S FOG Belmar PTCLDY 72 71 97 CALM 30.06F $$ PAZ047>061-062-071-310600- EASTERN PENNSYLVANIA CITY SKY/WX TMP DP RH WIND PRES REMARKS Philadelphia MOCLDY 74 71 91 E6 30.05F Allentown PTCLDY 65 60 84 NW3 30.06S Scranton PTCLDY 66 59 78 E6 30.06F $$ CTZ002-004>006-009-010-012-RIZ004-006-007-MAZ004-011-015-310600- SOUTHERN NEW ENGLAND IN CT CITY SKY/WX TMP DP RH WIND PRES REMARKS Bradley INTL PTCLDY 65 58 78 CALM 30.04F Hartford PTCLDY 72 64 76 S6 30.04S Danbury CLOUDY 66 64 93 CALM 30.07F Wtrbury/Oxford N/A 66 61 82 SW3 30.07F Bridgeport CLOUDY 76 68 76 SW10 30.05S Meriden CLOUDY 67 62 84 CALM 30.05F New Haven CLOUDY 74 67 78 SW5 30.05F Chester FAIR 70 66 88 SW6 30.07S Groton CLOUDY 71 66 84 W3 30.05S Wilimantic CLEAR 64 62 93 CALM 30.06S IN RI CITY SKY/WX TMP DP RH WIND PRES REMARKS Providence CLEAR 66 63 90 SW5 30.05F Block Island CLOUDY 72 68 87 SW9 30.07R Westerly CLOUDY 68 63 84 CALM 30.06S IN MA CITY SKY/WX TMP DP RH WIND PRES REMARKS Boston CLEAR 69 64 84 SW9 30.02F Worcester CLEAR 63 57 81 W7 30.06F Westfield CLEAR 62 59 90 CALM 30.04S Provincetown CLEAR 68 64 87 S8 30.04F Nantucket CLEAR 67 63 87 S9 30.06F $$ ANZ330-335-338-340-345-350-353-355-310600- COASTAL MARINE OBSERVATIONS STATION/POSITION TIME SKY/WX TEMP WIND PRES VSBY WAVE AIR SEA DIR/SP/G HT/PER (UTC) (F) (DEG/KT/KT) (MB) (MI) (FT/S) NY HARB ENTRANCE 0350 76 77 180/ 10/ 12 1017.6 4/12 20S FIRE ISLAND 0350 76 76 180/ 10/ 12 1017.7 5/11 GREAT SOUTH BAY 0400 76 80 200/ 8/ 12 N/A 23 SSW MONTAUK P 0350 76 77 210/ 10/ 12 1018.3 4/11 15 E BARNEGAT LI 0400 77 N/A 5/12 HUDSON CANYON 0350 77 78 1017.9 5/12 KINGS POINT 0400 76 77 1017.4 EXECUTION ROCKS 0400 75 180/ 6/ 8 N/A CENTRAL LI SOUND 0400 74 76 210/ 12/ 14 N/A 2/ 3 EASTERN LI SOUND 0400 72 70 250/ 4/ 6 N/A ROBBINS REEF 0400 75 170/ 7/ 8 1016.9 $$ >>>>>>>>>>>>>>>>>>>>>>>>>>>> KEY <<<<<<<<<<<<<<<<<<<<<<<<<<< > < > SKY/WX - Sky Condition/Present Weather < > TMP - Temperature in Fahrenheit < > DP - Dew Point in Fahrenheit < > RH - Relative Humidity in Percent < > WIND - Direction (from) and Speed in MPH < > PRES - Mean Sea Level Pressure (inches of Hg) < > WCI - Wind Chill Index < > VSB - VISIBILITY IN MILES < > HX - HEAT INDEX < > TC - TEMPERATURE IN CELSIUS < > VRB - VARIABLE WIND DIRECTION < > < >>>>>>>>>>>>>>>>>>>>>>>>>>>> KEY <<<<<<<<<<<<<<<<<<<<<<<<<<<

USA.gov is the U.S. government's official web portal to all federal, state and local government web resources and services.